| time (UTC) | temp F | wind direction | speed MPH | gust MPH | rain 1hr in | rain 24hr in | rain mn in | humidity % | barometer mb |
| 20260507073041 | 46 | 194 | 0.0 | 0.0 | 0.00 | 0.00 | 0.00 | 68 | 1018.5 |
| 20260507071535 | 47 | 216 | 0.0 | 5.0 | 0.00 | 0.00 | 0.00 | 68 | 1018.5 |
| 20260507070018 | 47 | 221 | 0.0 | 0.0 | 0.00 | 0.00 | 0.00 | 68 | 1018.5 |
| 20260507064517 | 47 | 210 | 0.0 | 0.0 | 0.00 | 0.00 | 0.00 | 66 | 1018.6 |
| 20260507063116 | 47 | 206 | 0.0 | 0.0 | 0.00 | 0.00 | 0.00 | 66 | 1018.7 |
| 20260507061559 | 47 | 202 | 0.0 | 0.0 | 0.00 | 0.00 | 0.00 | 67 | 1018.7 |
| 20260507054602 | 49 | 191 | 0.0 | 0.0 | 0.00 | 0.00 | 0.00 | 65 | 1018.8 |
| 20260507053043 | 49 | 181 | 0.0 | 1.0 | 0.00 | 0.00 | 0.00 | 64 | 1018.8 |
| 20260507051522 | 50 | 183 | 0.0 | 5.0 | 0.00 | 0.00 | 0.00 | 63 | 1018.6 |
| 20260507050038 | 50 | 214 | 0.0 | 0.0 | 0.00 | 0.00 | 0.00 | 63 | 1018.8 |
| 20260507044505 | 51 | 197 | 0.0 | 0.0 | 0.00 | 0.00 | 0.00 | 62 | 1018.9 |
| 20260507043005 | 51 | 201 | 0.0 | 0.0 | 0.00 | 0.00 | 0.00 | 60 | 1018.9 |
| 20260507041559 | 52 | 212 | 0.0 | 11.0 | 0.00 | 0.00 | 0.00 | 59 | 1018.9 |
| 20260507040046 | 52 | 167 | 0.0 | 14.0 | 0.00 | 0.00 | 0.00 | 58 | 1019.0 |
| 20260507034530 | 53 | 191 | 0.0 | 5.0 | 0.00 | 0.00 | 0.00 | 58 | 1018.9 |
| 20260507033029 | 53 | 248 | 0.0 | 5.0 | 0.00 | 0.00 | 0.00 | 58 | 1018.7 |
| 20260507031511 | 54 | 172 | 1.0 | 11.0 | 0.00 | 0.00 | 0.00 | 57 | 1018.2 |
| 20260507030013 | 54 | 208 | 0.0 | 10.0 | 0.00 | 0.00 | 0.00 | 57 | 1018.3 |
| 20260507024556 | 55 | 227 | 0.0 | 11.0 | 0.00 | 0.00 | 0.00 | 59 | 1018.5 |
| 20260507023055 | 55 | 194 | 0.0 | 0.0 | 0.00 | 0.00 | 0.00 | 59 | 1018.5 |
| 20260507021538 | 56 | 218 | 0.0 | 6.0 | 0.00 | 0.00 | 0.00 | 57 | 1018.5 |
| 20260507020036 | 57 | 235 | 1.0 | 10.0 | 0.00 | 0.00 | 0.00 | 55 | 1018.4 |
| 20260507014518 | 58 | 167 | 0.0 | 11.0 | 0.00 | 0.00 | 0.00 | 56 | 1018.5 |
| 20260507013021 | 58 | 230 | 0.0 | 1.0 | 0.00 | 0.00 | 0.00 | 55 | 1018.5 |
| 20260507011603 | 59 | 210 | 0.0 | 9.0 | 0.00 | 0.00 | 0.00 | 54 | 1018.5 |
| 20260507010059 | 59 | 184 | 0.0 | 9.0 | 0.00 | 0.00 | 0.00 | 53 | 1018.6 |
| 20260507004541 | 59 | 199 | 0.0 | 3.0 | 0.00 | 0.00 | 0.00 | 51 | 1018.6 |
| 20260507003041 | 61 | 191 | 0.0 | 7.0 | 0.00 | 0.00 | 0.00 | 48 | 1018.6 |
| 20260507001526 | 61 | 188 | 0.0 | 8.0 | 0.00 | 0.00 | 0.00 | 50 | 1018.6 |
| 20260507000026 | 62 | 216 | 1.0 | 10.0 | 0.00 | 0.00 | 0.00 | 52 | 1018.5 |
| 20260506234505 | 62 | 185 | 0.0 | 4.0 | 0.00 | 0.00 | 0.00 | 53 | 1018.6 |
| 20260506233004 | 61 | 186 | 0.0 | 12.0 | 0.00 | 0.00 | 0.00 | 58 | 1018.4 |
| 20260506231547 | 62 | 220 | 0.0 | 5.0 | 0.00 | 0.00 | 0.00 | 55 | 1018.4 |
| 20260506230059 | 63 | 135 | 0.0 | 1.0 | 0.00 | 0.00 | 0.00 | 52 | 1018.5 |
| 20260506224529 | 62 | 198 | 0.0 | 1.0 | 0.00 | 0.00 | 0.00 | 52 | 1018.7 |
| 20260506223028 | 63 | 191 | 0.0 | 3.0 | 0.00 | 0.00 | 0.00 | 51 | 1018.9 |
| 20260506221512 | 63 | 172 | 0.0 | 8.0 | 0.00 | 0.00 | 0.00 | 49 | 1018.9 |
| 20260506220011 | 65 | 235 | 0.0 | 0.0 | 0.00 | 0.00 | 0.00 | 46 | 1018.9 |
| 20260506214553 | 63 | 254 | 0.0 | 1.0 | 0.00 | 0.00 | 0.00 | 51 | 1019.0 |
| 20260506213056 | 63 | 211 | 0.0 | 3.0 | 0.00 | 0.00 | 0.00 | 51 | 1018.9 |
| 20260506211541 | 63 | 206 | 0.0 | 12.0 | 0.00 | 0.00 | 0.00 | 49 | 1018.8 |
| 20260506210042 | 63 | 193 | 0.0 | 0.0 | 0.00 | 0.00 | 0.00 | 50 | 1019.0 |
| 20260506204521 | 63 | 206 | 0.0 | 16.0 | 0.00 | 0.00 | 0.00 | 52 | 1018.9 |
| 20260506203015 | 63 | 204 | 0.0 | 10.0 | 0.00 | 0.00 | 0.00 | 53 | 1018.9 |
| 20260506201557 | 63 | 110 | 0.0 | 2.0 | 0.00 | 0.00 | 0.00 | 54 | 1018.9 |
| 20260506200056 | 63 | 239 | 0.0 | 9.0 | 0.00 | 0.00 | 0.00 | 51 | 1018.8 |
| 20260506194542 | 63 | 206 | 0.0 | 5.0 | 0.00 | 0.00 | 0.00 | 50 | 1018.9 |
| 20260506193046 | 62 | 192 | 0.0 | 8.0 | 0.00 | 0.00 | 0.00 | 51 | 1019.0 |
| 20260506191515 | 61 | 182 | 0.0 | 15.0 | 0.00 | 0.00 | 0.00 | 52 | 1019.0 |
| 20260506190016 | 61 | 195 | 0.0 | 4.0 | 0.00 | 0.00 | 0.00 | 53 | 1019.2 |
| 20260506184559 | 60 | 262 | 0.0 | 0.0 | 0.00 | 0.00 | 0.00 | 54 | 1019.3 |
| 20260506183103 | 60 | 196 | 0.0 | 2.0 | 0.00 | 0.00 | 0.00 | 55 | 1019.4 |
| 20260506181548 | 60 | 197 | 0.0 | 0.0 | 0.00 | 0.00 | 0.00 | 56 | 1019.4 |
| 20260506180036 | 60 | 235 | 0.0 | 0.0 | 0.00 | 0.00 | 0.00 | 53 | 1019.3 |
| 20260506174517 | 59 | 221 | 0.0 | 0.0 | 0.00 | 0.00 | 0.00 | 52 | 1019.4 |
| 20260506173015 | 59 | 221 | 0.0 | 0.0 | 0.00 | 0.00 | 0.00 | 56 | 1019.5 |
| 20260506171604 | 59 | 215 | 0.0 | 0.0 | 0.00 | 0.00 | 0.00 | 58 | 1019.3 |
| 20260506170107 | 58 | 206 | 0.0 | 0.0 | 0.00 | 0.00 | 0.00 | 57 | 1019.2 |
| 20260506164537 | 57 | 210 | 0.0 | 0.0 | 0.00 | 0.00 | 0.00 | 59 | 1019.0 |
| 20260506163043 | 57 | 225 | 0.0 | 0.0 | 0.00 | 0.00 | 0.00 | 60 | 1019.0 |
| 20260506161514 | 56 | 204 | 0.0 | 0.0 | 0.00 | 0.00 | 0.00 | 61 | 1015.6 |
| 20260506160010 | 55 | 263 | 0.0 | 0.0 | 0.00 | 0.00 | 0.00 | 63 | 1018.5 |
| 20260506154607 | 55 | 206 | 0.0 | 0.0 | 0.00 | 0.00 | 0.00 | 64 | 1019.0 |
| 20260506153046 | 54 | 217 | 0.0 | 0.0 | 0.00 | 0.00 | 0.00 | 65 | 1019.1 |
| 20260506151526 | 54 | 198 | 0.0 | 0.0 | 0.00 | 0.00 | 0.00 | 66 | 1019.1 |
| 20260506150022 | 54 | 167 | 0.0 | 0.0 | 0.00 | 0.00 | 0.00 | 66 | 1019.2 |
| 20260506144501 | 54 | 235 | 0.0 | 0.0 | 0.00 | 0.00 | 0.00 | 65 | 1019.0 |
| 20260506143057 | 53 | 210 | 0.0 | 0.0 | 0.00 | 0.00 | 0.00 | 65 | 1018.9 |
| 20260506141536 | 53 | 177 | 0.0 | 0.0 | 0.00 | 0.00 | 0.00 | 66 | 1018.9 |
| 20260506140035 | 52 | 216 | 0.0 | 0.0 | 0.00 | 0.00 | 0.00 | 67 | 1018.7 |
| 20260506134511 | 51 | 213 | 0.0 | 0.0 | 0.00 | 0.00 | 0.00 | 68 | 1018.8 |
| 20260506133007 | 50 | 214 | 0.0 | 0.0 | 0.00 | 0.00 | 0.00 | 70 | 1018.6 |
| 20260506131554 | 49 | 225 | 0.0 | 0.0 | 0.00 | 0.00 | 0.00 | 74 | 1018.5 |
| 20260506130114 | 48 | 232 | 0.0 | 1.0 | 0.00 | 0.00 | 0.00 | 74 | 1018.5 |
| 20260506124551 | 47 | 200 | 0.0 | 0.0 | 0.00 | 0.00 | 0.00 | 77 | 1018.3 |
| 20260506123051 | 47 | 229 | 0.0 | 0.0 | 0.00 | 0.00 | 0.00 | 79 | 1018.2 |
| 20260506121550 | 47 | 229 | 0.0 | 0.0 | 0.00 | 0.00 | 0.00 | 79 | 1018.1 |
| 20260506120048 | 47 | 229 | 0.0 | 0.0 | 0.00 | 0.00 | 0.00 | 78 | 1018.0 |
| 20260506114549 | 47 | 229 | 0.0 | 0.0 | 0.00 | 0.00 | 0.00 | 77 | 1018.0 |
| 20260506113045 | 48 | 229 | 0.0 | 0.0 | 0.00 | 0.00 | 0.00 | 76 | 1018.1 |
| 20260506111527 | 48 | 229 | 0.0 | 0.0 | 0.00 | 0.00 | 0.00 | 75 | 1018.1 |
| 20260506110026 | 48 | 229 | 0.0 | 0.0 | 0.00 | 0.00 | 0.00 | 73 | 1017.9 |
| 20260506104520 | 49 | 229 | 0.0 | 0.0 | 0.00 | 0.00 | 0.00 | 71 | 1017.9 |
| 20260506103008 | 49 | 229 | 0.0 | 0.0 | 0.00 | 0.00 | 0.00 | 69 | 1017.8 |
| 20260506101549 | 49 | 229 | 0.0 | 0.0 | 0.00 | 0.00 | 0.00 | 67 | 1017.7 |
| 20260506100045 | 48 | 42 | 0.0 | 0.0 | 0.00 | 0.00 | 0.00 | 68 | 1017.7 |
| 20260506094532 | 48 | 42 | 0.0 | 0.0 | 0.00 | 0.00 | 0.00 | 68 | 1017.7 |
| 20260506093023 | 47 | 42 | 0.0 | 0.0 | 0.00 | 0.00 | 0.00 | 69 | 1017.8 |
| 20260506091504 | 48 | 42 | 0.0 | 0.0 | 0.00 | 0.00 | 0.00 | 70 | 1017.8 |
| 20260506090003 | 48 | 42 | 0.0 | 0.0 | 0.00 | 0.00 | 0.00 | 71 | 1017.7 |
| 20260506084545 | 48 | 42 | 0.0 | 0.0 | 0.00 | 0.00 | 0.00 | 71 | 1017.7 |
| 20260506083047 | 48 | 42 | 0.0 | 0.0 | 0.00 | 0.00 | 0.00 | 70 | 1017.8 |
| 20260506081525 | 48 | 42 | 0.0 | 0.0 | 0.00 | 0.00 | 0.00 | 70 | 1017.8 |